Showing default

OTTER PUP, 56933

Orbit data source: Space-Track

OTTER PUP, 56933 is a payload satellite owned by Starfish Space (US) in SSO that was launched on Mon, 12 Jun 2023 UTC via an FALCON 9 launch vehicle from the Air Force Western Test Range (AFWTR). Payload-class satellites include a variety of spacecraft equipped with specific instruments for various scientific and technological missions. These include communications satellites like Starlink; space stations such as the ISS; scientific satellites like the Hubble; Earth observation satellites from companies like Planet Labs, Umbra, and HawkEye 360; GPS; miniature CubeSats for education and research; and military/defense satellites.

Loading next visibility...
Identifier
56933, 2023-084B
Orbit
SSO
Country
Flag of USUS
Related business
Manufacturer
Starfish Space
Mission
Partially operational Commercial Technology
Bus & Motor
OTTER, EP
Mass
~50 kg wet, 50 kg dry
Launch date (UTC)
2023-06-12 (3 years ago)
Launch vehicle
FALCON 9
Launch site
Air Force Western Test Range (AFWTR)
Object type
Payload
Rocket body
Debris
Shape & HBR
Box + 2 Pan, 0.5 m
Radar Cross Section
1.500 m², Medium (>0.1 m² and < 1m²)

Expand to show TLE details & history
Last TLE update: 8 hours ago

TLE from 8 hours ago
0 OTTER PUP
1 56933U 23084B   25352.95856999  .00057539  00000-0  60497-3 0  9998
2 56933  97.5794 136.8664 0002890 180.9573 179.1681 15.64143895140818
Epoch: 2025-12-18T23:00Z
TLE epoch observation values (Epoch: 2025-12-18T23:00:20.447Z)
Latitude
0.00006°
Longitude
63.97459°
Altitude
380.799 km
Speed
7.68 km/s
True Right ascension
09h 07m 27s
True Declination
0° 00' 00"
Sunlit
Object was in full shadow at epoch
Visualization orbit readout
Latitude
Unknown
Longitude
Unknown
Altitude
Unknown
Speed
Unknown
Apparent Right ascension
Unknown
Apparent Declination
Unknown
Sunlit
N/A
Visualization observer readout
Local Sidereal Time
06:19:01
Azimuth
Unknown
Elevation
Unknown
Doppler factor
Unknown
Orbital elements
Apogee altitude
374.568 km
Perigee altitude
370.666 km
Semi-major axis
6,750.754 km
Eccentricity
0.00029
Inclination
97.5794°
RAAN
136.8664°
Arg. of periapsis
180.9573°
True anomaly
179.16858°
Mean anomaly
179.1681°
Eccentric anomaly
179.16834°
Mean motion
3.91304 °/min
Orbital period
92 mins
BSTAR
0.00060497
Loading maneuver chart data...
Computing Atmospheric mass density...

Documentation

Showing up to 5 results
|